Weather History for Dallas/Ft Worth, TX

Change the Weather History Date:

Monday, December 3, 2012

  Actual Average Record
Temperature  
Mean Temperature 73 °F 50 °F  
Max Temperature 80 °F 60 °F 89 °F (2005)
Min Temperature 65 °F 40 °F 21 °F (1929)
Degree Days  
Heating Degree Days 0 15  
Month to date heating degree days 0 45  
Since 1 July heating degree days 288 399  
Cooling Degree Days 8 0  
Month to date cooling degree days 27 0  
Year to date cooling degree days 3350 2752  
Growing Degree Days 23 (Base 50)    
Moisture  
Dew Point 58 °F    
Average Humidity 65    
Maximum Humidity 87    
Minimum Humidity 42    
Precipitation  
Precipitation 0.00 in 0.09 in 1.48 in (1998)
Month to date precipitation 0.00 0.25  
Year to date precipitation 29.31 33.84  
Snow  
Snow 0.00 in 0.00 in T in (1919)
Month to date snowfall 0.0 0.0  
Since 1 July snowfall 0.0 T  
Snow Depth 0.00 in    
Sea Level Pressure  
Sea Level Pressure 29.94 in    
Wind  
Wind Speed 16 mph (South)    
Max Wind Speed 28 mph    
Max Gust Speed 35 mph    
Visibility 10 miles    
Events      
T = Trace of Precipitation, MM = Missing Value Source: NWS Daily Summary

Daily Weather History Graph

Daily Weather History Graph

Search for Another Location

Airport:

Trip Planner

Search our weather history database for the weather conditions in past years. The results will help you decide how hot, cold, wet, or windy it might be!

Date:

Astronomy

Dec. 03, 2012 Rise Set
Actual Time 7:14 AM CST 5:21 PM CST
Civil Twilight 6:47 AM CST 5:48 PM CST
Nautical Twilight 6:17 AM CST 6:18 PM CST
Astronomical Twilight 5:47 AM CST 6:48 PM CST
Moon 10:00 PM CST (12/3) 10:46 AM CST (12/3)
Length of Visible Light 11h 00m
Length of Day
10h 06m
Waning Gibbous, 78% of the Moon is Illuminated
Dec 3
Waning Gibbous
Dec 6
Last Quarter
Dec 13
New
Dec 19
First Quarter
Dec 28
Full

Hourly Weather History & Observations

Time (CST) Temp. Heat Index Dew Point Humidity Pressure Visibility Wind Dir Wind Speed Gust Speed Precip Events Conditions
12:53 AM 68.0 °F - 59.0 °F 73% 29.97 in 10.0 mi South 16.1 mph - N/A   Mostly Cloudy
1:53 AM 66.9 °F - 59.0 °F 76% 29.96 in 10.0 mi South 13.8 mph - N/A   Mostly Cloudy
2:53 AM 66.0 °F - 59.0 °F 78% 29.96 in 10.0 mi South 16.1 mph - N/A   Mostly Cloudy
3:53 AM 64.9 °F - 60.1 °F 84% 29.96 in 10.0 mi South 16.1 mph - N/A   Mostly Cloudy
4:17 AM 64.4 °F - 60.8 °F 88% 29.98 in 10.0 mi South 18.4 mph 25.3 mph N/A   Mostly Cloudy
4:53 AM 64.9 °F - 60.1 °F 84% 29.96 in 10.0 mi South 15.0 mph - N/A   Mostly Cloudy
5:51 AM 66.2 °F - 60.8 °F 83% 29.98 in 10.0 mi South 20.7 mph 25.3 mph N/A   Overcast
5:53 AM 66.0 °F - 60.1 °F 81% 29.96 in 10.0 mi South 21.9 mph 26.5 mph N/A   Mostly Cloudy
6:53 AM 66.0 °F - 59.0 °F 78% 29.96 in 10.0 mi South 20.7 mph 29.9 mph N/A   Mostly Cloudy
7:53 AM 66.9 °F - 59.0 °F 76% 29.97 in 10.0 mi South 17.3 mph 27.6 mph N/A   Mostly Cloudy
8:53 AM 68.0 °F - 59.0 °F 73% 29.98 in 10.0 mi SSW 20.7 mph - N/A   Mostly Cloudy
9:53 AM 71.1 °F - 59.0 °F 66% 29.99 in 10.0 mi South 18.4 mph - N/A   Mostly Cloudy
10:53 AM 73.0 °F - 57.9 °F 59% 29.97 in 10.0 mi South 24.2 mph 29.9 mph N/A   Scattered Clouds
11:53 AM 77.0 °F - 57.0 °F 50% 29.95 in 10.0 mi South 20.7 mph 32.2 mph N/A   Scattered Clouds
12:53 PM 79.0 °F - 57.0 °F 47% 29.93 in 10.0 mi South 19.6 mph 31.1 mph N/A   Scattered Clouds
1:53 PM 80.1 °F 80.4 °F 57.0 °F 45% 29.90 in 10.0 mi SSW 19.6 mph 29.9 mph N/A   Scattered Clouds
2:53 PM 80.1 °F 80.2 °F 55.9 °F 43% 29.87 in 10.0 mi SSW 18.4 mph 26.5 mph N/A   Partly Cloudy
3:53 PM 80.1 °F 80.4 °F 57.0 °F 45% 29.87 in 10.0 mi South 18.4 mph - N/A   Scattered Clouds
4:53 PM 77.0 °F - 57.0 °F 50% 29.87 in 10.0 mi SSW 17.3 mph - N/A   Scattered Clouds
5:53 PM 73.9 °F - 57.0 °F 55% 29.88 in 10.0 mi South 10.4 mph - N/A   Partly Cloudy
6:53 PM 73.0 °F - 57.0 °F 57% 29.88 in 10.0 mi South 11.5 mph - N/A   Partly Cloudy
7:53 PM 71.1 °F - 57.9 °F 63% 29.90 in 10.0 mi South 16.1 mph - N/A   Clear
8:53 PM 71.1 °F - 57.9 °F 63% 29.92 in 10.0 mi SSW 12.7 mph - N/A   Clear
9:53 PM 71.1 °F - 59.0 °F 66% 29.94 in 10.0 mi SSW 12.7 mph - N/A   Clear
10:53 PM 70.0 °F - 59.0 °F 68% 29.95 in 10.0 mi South 8.1 mph - N/A   Partly Cloudy
11:53 PM 66.9 °F - 59.0 °F 76% 29.96 in 10.0 mi South 6.9 mph - N/A   Mostly Cloudy